Location: Heidgraben
(53.7081°N, 9.6576°E)
Time: 00:18:14
(UTC+00:00)

Cosmos 2333 Rocket - Pass Details

Date: 29 October 2020
Orbit: 841 x 861 km, 70.8° (Epoch: 28 November)

Event Time Altitude Azimuth Distance (km) Brightness Sun altitude
Exits shadow 03:57:02 - 332° (NNW) 2,795 4.7 -21.0°
Reaches altitude 10° 03:58:06 10° 338° (NNW) 2,484 4.5 -20.8°
Maximum altitude 04:02:32 23° 30° (NNE) 1,750 4.2 -20.2°
Drops below altitude 10° 04:06:56 10° 81° (E) 2,469 5.9 -19.5°
Sets 04:09:55 0° 96° (E) 3,399 6.9 -19.1°
